Temperature
9 8 8 8 8 8 7 9 9 10 10 10 10 8 7 7 6 6 5 5 5 6 6 6 6 6 6 6 6 6 6 6 6 6 6 6 6 6 5 5 5 5 5 5
7 7 7 7 8 8 7 8 8 9 9 10 8 7 6 6 6 5 5 5 5 5 6 5 6 6 6 6 6 6 6 6 6 6 5 5 5 5 5 5 5 4 4 4
8 7 7 8 9 8 8 8 8 8 9 8 8 7 6 6 5 5 5 5 5 5 5 5 5 5 6 6 5 5 5 5 5 5 5 5 5 5 5 4 4 4 4 4
7 7 7 10 8 8 8 7 7 7 8 7 7 6 5 5 5 5 5 5 5 5 5 5 5 5 5 5 5 5 5 5 5 5 5 5 5 5 4 4 4 4 4 4
6 7 9 9 7 7 7 7 7 7 7 6 5 5 6 5 5 5 5 5 5 5 5 5 5 5 5 5 5 5 5 5 5 5 4 4 4 4 4 4 3 3 3 3
6 7 8 10 7 6 7 8 7 6 6 5 5 7 8 5 5 5 5 5 5 5 5 5 5 4 4 4 4 4 4 4 4 4 4 4 4 4 4 3 3 3 3 3
6 6 8 8 5 6 8 9 6 5 5 5 5 6 5 5 5 4 4 4 4 4 4 4 4 4 4 4 4 4 4 4 4 4 4 3 3 3 3 3 3 3 2 2
5 6 7 6 5 7 8 6 5 5 5 4 4 4 4 4 4 4 4 4 4 4 4 4 4 3 4 4 4 4 4 4 3 3 3 3 3 3 3 2 2 2 2 2
6 7 6 5 5 5 5 5 5 4 4 4 4 4 3 3 3 3 3 3 3 3 3 3 3 3 3 3 3 3 3 3 3 3 3 3 2 2 2 2 2 2 1 1
5 5 5 4 4 5 5 4 4 4 4 3 3 3 3 3 3 3 3 3 3 3 3 3 3 3 3 3 2 2 3 2 2 2 2 2 2 2 2 1 1 1 1 1
4 5 4 4 4 4 4 4 4 3 3 3 3 3 3 2 2 2 2 2 2 2 2 2 2 2 2 2 2 2 2 2 2 2 2 1 1 1 1 1 1 1 1 1
5 5 4 4 4 4 4 3 3 3 3 3 2 2 2 2 2 2 2 2 2 2 2 2 2 2 2 2 1 1 1 1 1 1 1 1 1 1 1 1 0 0 0 -0
4 4 4 4 4 3 3 3 2 2 2 2 2 2 1 1 1 1 1 1 1 1 1 1 1 1 1 1 1 1 1 1 0 0 0 0 0 0 0 0 -0 -0 -0 -0
3 3 2 3 2 2 2 2 2 2 2 1 1 1 1 1 1 1 1 1 1 1 1 1 1 1 1 1 0 0 0 0 -0 -0 -0 -0 -0 -1 -1 -1 -1 -1 -1 -1
2 2 2 2 2 1 1 1 1 1 1 1 1 0 0 0 0 0 1 0 1 1 0 0 0 0 0 -0 -0 -0 -0 -0 -0 -1 -1 -1 -1 -1 -1 -1 -2 -2 -2 -2
1 1 1 1 1 1 1 0 0 0 0 0 0 0 -0 -0 -0 0 0 -0 -0 0 0 -0 -0 -0 -0 -0 -1 -1 -1 -1 -1 -1 -1 -1 -1 -2 -2 -2 -2 -2 -2 -3
-0 -0 -0 -0 -0 -0 -0 -0 -0 -0 -0 -0 -0 -0 -0 -0 -0 -0 -0 -1 -1 -1 -1 -1 -1 -1 -1 -1 -1 -1 -1 -2 -2 -2 -2 -2 -2 -2 -2 -3 -3 -3 -3 -3
-0 -0 -0 -0 -1 -1 -1 -1 -1 -1 -1 -1 -1 -1 -1 -1 -1 -1 -1 -1 -1 -1 -1 -1 -1 -1 -2 -2 -2 -2 -2 -2 -2 -2 -2 -2 -3 -3 -3 -3 -3 -3 -4 -4
-1 -1 -1 -1 -1 -1 -1 -1 -2 -2 -2 -2 -2 -2 -1 -1 -2 -2 -2 -2 -2 -2 -2 -2 -2 -2 -2 -2 -2 -2 -2 -3 -3 -3 -3 -3 -3 -3 -3 -4 -4 -4 -4 -4
-2 -2 -2 -2 -2 -2 -2 -2 -2 -2 -2 -2 -2 -2 -2 -2 -2 -2 -2 -2 -2 -2 -2 -2 -2 -3 -3 -3 -3 -3 -3 -3 -3 -3 -3 -4 -4 -4 -4 -4 -4 -5 -5 -5
-2 -2 -2 -2 -2 -2 -3 -3 -3 -3 -3 -3 -3 -3 -3 -3 -3 -3 -3 -3 -3 -3 -3 -3 -3 -3 -3 -3 -4 -4 -4 -4 -4 -4 -4 -4 -4 -4 -5 -5 -5 -5 -5 -5
-3 -3 -3 -3 -3 -3 -3 -3 -3 -3 -3 -3 -3 -4 -4 -4 -4 -4 -4 -4 -4 -4 -4 -4 -4 -4 -4 -4 -4 -4 -4 -4 -4 -4 -5 -5 -5 -5 -5 -5 -5 -5 -5 -6
-4 -4 -4 -4 -4 -4 -4 -4 -4 -4 -4 -4 -4 -4 -4 -4 -5 -5 -5 -4 -5 -4 -4 -4 -4 -4 -5 -5 -5 -5 -5 -5 -5 -5 -5 -5 -5 -5 -5 -5 -5 -6 -6 -6
-4 -4 -4 -4 -4 -4 -4 -4 -4 -4 -4 -5 -5 -5 -5 -5 -5 -5 -5 -5 -5 -5 -5 -5 -5 -5 -5 -5 -5 -5 -5 -5 -5 -5 -5 -6 -6 -6 -6 -6 -6 -6 -6 -6
-5 -5 -5 -5 -5 -5 -5 -5 -5 -5 -5 -5 -5 -5 -6 -6 -6 -6 -6 -6 -6 -6 -6 -6 -6 -6 -6 -6 -6 -6 -6 -6 -6 -6 -6 -6 -6 -6 -6 -6 -6 -6 -6 -6
-5 -5 -5 -5 -5 -5 -5 -5 -5 -6 -6 -6 -6 -6 -6 -6 -6 -6 -6 -6 -6 -6 -6 -6 -6 -6 -6 -6 -6 -6 -6 -6 -6 -6 -7 -7 -7 -7 -7 -7 -7 -7 -7 -7
-6 -6 -6 -6 -6 -6 -6 -6 -6 -6 -6 -6 -6 -6 -6 -6 -6 -7 -7 -7 -7 -7 -7 -7 -7 -7 -7 -7 -7 -7 -7 -7 -7 -7 -7 -7 -7 -7 -7 -7 -7 -7 -7 -7
Wind_Speed
9 8 7 9 11 10 12 11 10 10 11 11 8 7 7 7 6 6 6 6 6 6 6 5 5 4 4 4 4 3 4 5 5 5 5 5 5 5 5 5 6 6 6 6
6 6 7 11 13 13 14 13 14 14 13 8 5 4 4 5 6 7 7 7 7 6 6 6 6 5 4 4 4 4 4 5 4 4 4 5 5 5 5 5 5 5 6 5
5 3 6 10 9 11 8 9 9 10 7 4 4 4 5 5 6 7 7 8 8 7 7 7 6 6 5 5 4 4 5 5 4 4 4 5 5 5 5 5 5 6 6 6
3 3 7 3 1 5 7 7 9 7 6 5 5 5 5 5 5 6 7 8 8 8 8 7 7 5 5 4 4 4 5 5 4 4 5 5 5 5 6 5 5 6 6 6
4 6 9 6 3 4 5 6 7 8 6 4 4 4 3 3 5 6 7 8 8 8 8 7 6 5 4 4 4 5 5 5 5 5 5 5 5 6 5 5 6 6 5 5
5 6 7 2 2 2 2 5 3 5 5 3 2 4 3 5 7 7 7 7 8 8 7 7 6 5 4 4 4 5 5 6 5 5 5 6 6 6 5 5 6 5 5 5
10 9 8 2 2 4 4 2 2 3 4 4 4 5 5 7 7 7 8 8 7 7 7 6 6 5 5 5 6 5 5 5 5 6 6 6 5 5 4 4 4 5 5 5
8 9 8 4 5 5 1 2 1 2 3 4 5 5 6 7 7 8 8 8 7 7 7 7 6 5 6 6 6 5 5 5 5 5 5 4 5 4 4 4 5 5 4 4
9 7 2 4 4 1 0 1 2 3 4 4 5 6 7 7 7 8 8 8 7 7 7 7 6 5 6 6 5 5 5 5 5 5 4 4 4 4 4 4 4 4 4 4
6 7 4 4 3 3 3 3 4 4 4 5 6 7 7 7 7 7 8 7 7 7 7 8 7 6 7 6 5 5 5 5 4 4 4 4 4 4 4 4 5 5 5 5
7 6 4 5 5 5 4 5 5 5 5 6 6 7 7 7 7 7 7 7 7 7 8 9 8 7 7 6 5 5 5 5 4 4 4 4 4 4 5 6 6 6 5 5
8 6 5 6 6 5 5 5 5 5 6 6 6 7 7 7 7 7 7 7 7 8 8 8 8 8 7 6 5 5 5 5 4 4 4 4 4 4 5 6 7 8 8 7
8 6 6 6 4 4 5 5 5 6 6 7 6 6 6 7 7 7 7 8 8 8 8 8 8 8 7 6 5 5 6 5 4 4 4 4 4 4 4 4 5 6 7 7
6 4 5 5 4 4 4 5 4 4 5 5 6 6 6 6 7 7 8 8 8 8 8 8 8 8 8 6 5 6 6 5 5 4 4 4 4 4 4 4 4 4 4 6
6 5 5 4 3 3 3 3 4 4 5 5 5 5 6 6 7 8 8 7 7 7 8 8 8 8 7 6 6 6 5 5 4 4 4 4 4 4 4 5 4 4 3 3
4 4 4 4 4 3 3 4 5 6 6 6 6 6 6 7 7 8 8 7 7 8 8 8 8 8 7 6 6 5 5 6 5 4 4 4 4 4 4 4 4 4 4 3
3 4 4 4 5 4 5 5 6 7 7 7 7 7 6 6 7 7 7 7 7 8 8 8 8 8 7 6 6 5 4 5 5 5 4 4 4 4 4 4 4 4 4 4
5 5 5 4 4 5 5 5 5 6 6 7 6 6 6 7 8 8 7 7 7 7 7 7 7 7 6 6 5 5 4 4 4 4 4 4 4 4 4 4 5 5 4 4
3 3 3 3 4 4 5 5 5 5 6 5 6 6 7 7 7 7 7 6 7 7 7 6 7 7 6 6 5 4 4 4 4 4 4 5 5 4 4 4 4 4 4 4
2 2 2 3 3 3 4 5 5 5 5 5 5 6 6 6 6 6 6 6 6 6 6 7 7 6 5 5 5 4 4 4 4 4 4 4 4 4 4 4 4 4 4 4
2 2 2 2 3 4 4 4 4 5 5 5 5 5 6 6 5 5 5 6 6 6 6 7 5 5 5 5 5 4 4 4 4 4 4 4 4 4 4 4 4 4 4 4
2 2 3 3 3 4 4 4 4 5 5 5 5 5 5 5 5 5 5 5 6 7 6 5 5 6 7 7 4 4 4 4 4 4 4 4 4 4 4 4 4 4 4 4
2 3 3 3 4 4 5 4 4 4 4 4 4 5 5 5 4 4 5 4 5 7 6 5 7 9 10 6 4 4 4 4 4 4 4 4 4 4 4 4 4 4 4 4
3 3 3 3 3 3 4 5 4 4 4 4 4 4 4 4 5 4 5 6 8 8 6 7 10 10 9 4 3 4 4 4 4 4 4 4 3 3 4 4 4 4 4 4
3 3 3 3 3 3 4 4 4 4 4 4 5 5 4 4 4 5 5 6 7 8 6 7 9 9 6 4 4 4 3 3 3 3 3 3 3 3 3 3 4 4 4 4
3 3 3 3 3 3 3 3 3 4 4 4 5 5 4 4 5 5 5 6 6 7 6 5 6 6 4 4 4 4 3 3 3 3 3 3 3 3 3 3 4 3 3 3
3 3 3 3 3 3 3 3 4 4 4 5 5 5 5 5 5 5 6 5 5 5 5 5 5 5 4 4 4 3 3 3 2 2 3 3 3 3 3 3 3 3 3 3
Wind_Direction
264 273 264 258 255 237 229 237 250 265 272 284 303 306 309 319 329 336 338 340 338 328 322 319 314 302 284 271 262 251 242 238 236 234 230 226 225 224 222 222 227 228 229 233
267 261 264 266 256 242 239 242 249 263 273 286 306 305 308 322 328 330 332 332 331 327 319 313 308 302 291 276 267 257 247 245 243 237 235 231 229 227 225 226 229 229 230 233
262 285 288 265 245 223 221 223 228 243 260 291 295 294 301 308 315 321 323 323 323 320 315 310 304 298 288 278 269 255 251 251 247 239 235 235 231 228 229 230 230 232 234 235
267 275 247 261 98 205 219 236 228 247 267 271 283 295 291 291 304 313 317 318 318 317 317 315 312 305 296 282 267 257 254 255 254 248 243 239 233 234 236 234 233 236 237 238
225 252 272 272 215 188 210 250 227 234 257 281 305 295 280 302 311 307 310 312 313 314 314 315 315 310 297 280 269 262 261 261 256 249 244 238 235 237 237 235 235 236 238 238
217 235 246 253 125 159 194 242 195 225 248 255 280 281 304 327 320 316 317 315 315 318 318 319 321 316 297 285 276 270 270 269 264 256 248 242 240 239 239 239 242 242 241 241
223 237 259 261 139 162 217 269 165 226 236 226 251 285 309 313 313 314 316 317 317 317 317 319 319 311 295 288 283 285 284 279 271 261 254 251 249 244 239 239 244 244 246 249
206 223 244 151 154 200 265 63 189 247 250 251 269 290 297 302 306 310 314 317 319 316 316 318 315 304 295 292 296 296 287 280 274 268 262 253 247 244 241 237 240 245 248 256
206 223 332 174 201 220 111 247 273 275 271 263 274 285 292 297 301 306 309 312 314 312 312 314 312 301 294 298 301 294 284 279 278 273 264 255 246 241 241 239 241 247 248 253
247 257 261 236 246 270 263 269 277 277 274 268 274 282 288 292 297 302 306 309 312 311 309 311 313 304 295 298 295 284 279 280 279 271 265 259 251 242 237 237 240 244 246 253
251 267 279 251 251 263 276 284 289 287 279 271 272 277 283 289 293 297 301 305 305 303 302 305 308 303 301 297 290 283 281 280 278 271 266 262 257 251 245 244 244 245 247 247
244 241 244 264 265 261 262 274 279 284 287 281 272 276 283 286 289 292 295 299 299 298 299 302 305 302 301 296 283 278 279 278 274 269 266 264 264 271 264 261 267 263 262 258
258 265 264 273 268 258 260 272 278 274 274 280 282 279 280 285 288 289 291 293 294 296 297 299 300 299 299 293 279 270 269 270 270 265 261 258 258 260 273 279 264 261 259 260
249 255 264 263 266 270 276 281 283 280 279 280 283 286 284 286 290 290 292 295 296 296 295 296 297 296 298 293 280 273 271 266 262 260 255 253 251 254 257 262 272 275 263 258
247 247 253 264 272 278 282 282 282 285 290 291 288 284 283 284 288 292 296 298 297 294 294 296 296 298 301 293 280 272 268 265 264 262 257 252 250 251 252 253 257 268 279 270
252 252 245 248 254 262 273 278 277 281 285 287 287 286 286 286 289 292 294 294 292 291 295 296 294 298 301 291 281 274 268 261 260 260 256 251 248 248 251 253 254 255 258 264
214 236 245 259 265 268 270 275 274 276 281 282 285 290 292 291 290 290 294 295 290 288 289 289 291 297 297 288 279 273 269 260 249 254 251 249 248 247 249 251 253 257 259 259
232 236 236 244 254 266 275 281 281 283 283 286 289 287 284 284 285 290 297 301 298 296 295 292 293 297 295 290 283 273 265 259 252 251 251 249 252 251 251 253 255 259 266 265
254 248 256 260 261 265 271 280 287 291 292 290 287 284 283 283 285 290 295 294 292 295 303 308 306 301 298 296 290 273 263 260 257 255 254 253 254 252 253 254 257 262 264 261
282 278 285 291 286 276 278 289 295 295 295 293 291 290 289 289 291 293 293 288 286 291 300 307 309 303 299 296 289 274 264 261 261 260 256 252 252 254 255 254 256 259 259 257
308 310 307 304 303 300 293 291 291 295 300 296 289 288 292 297 298 295 292 293 300 306 306 307 306 301 300 296 288 277 270 267 264 259 255 256 257 258 258 256 255 256 257 260
309 305 303 303 301 306 308 303 297 298 302 302 299 296 297 300 303 300 290 286 300 311 313 306 304 299 301 298 285 277 272 269 267 263 258 257 256 256 256 258 258 258 258 258
305 299 296 296 298 302 308 307 302 302 301 303 303 300 297 297 298 297 302 306 308 313 314 307 310 310 307 301 284 276 272 269 267 264 261 257 255 254 255 255 256 256 257 260
309 305 301 301 301 302 308 312 313 309 307 307 304 301 299 301 304 297 294 306 316 316 313 313 316 317 317 307 292 283 277 272 269 266 264 261 259 256 252 251 254 255 255 258
315 309 307 310 311 307 307 312 315 314 315 314 314 316 311 303 300 308 312 313 317 319 316 317 320 323 322 309 301 290 282 274 271 271 266 262 261 258 255 252 250 253 256 257
325 321 316 314 309 309 312 313 312 314 316 316 319 322 322 320 315 313 314 317 321 320 320 318 320 322 318 311 306 301 294 285 281 275 268 268 263 260 257 255 258 257 257 257
334 328 325 329 330 325 319 315 311 313 313 310 310 317 321 322 320 319 317 318 320 321 320 320 319 317 315 313 310 309 307 303 296 287 279 270 264 264 263 262 263 262 260 256
Height
1518 1518 1519 1517 1515 1517 1517 1511 1507 1499 1498 1495 1497 1499 1499 1497 1496 1494 1491 1489 1487 1486 1484 1483 1482 1481 1480 1480 1480 1480 1480 1480 1480 1480 1480 1480 1480 1480 1480 1480 1479 1479 1479 1478
1520 1518 1518 1515 1509 1510 1510 1508 1505 1502 1499 1496 1498 1498 1498 1496 1495 1493 1490 1488 1486 1484 1483 1481 1480 1478 1478 1477 1477 1477 1477 1477 1476 1476 1476 1476 1476 1476 1476 1475 1475 1475 1474 1474
1514 1516 1514 1504 1498 1501 1502 1501 1501 1498 1495 1497 1497 1497 1496 1495 1493 1491 1489 1487 1485 1483 1481 1479 1477 1476 1475 1474 1474 1474 1473 1473 1473 1473 1472 1472 1472 1472 1471 1471 1471 1471 1470 1470
1516 1514 1511 1492 1497 1496 1497 1497 1498 1497 1496 1496 1496 1496 1494 1493 1492 1490 1488 1485 1483 1481 1479 1477 1475 1473 1472 1471 1471 1470 1470 1469 1469 1469 1468 1468 1468 1467 1467 1467 1467 1466 1466 1465
1515 1507 1496 1492 1495 1496 1496 1493 1494 1494 1494 1495 1495 1494 1492 1491 1490 1488 1486 1484 1481 1479 1476 1474 1472 1471 1469 1468 1467 1467 1466 1466 1466 1465 1464 1464 1464 1463 1463 1463 1462 1462 1461 1461
1511 1507 1497 1486 1493 1494 1495 1489 1491 1492 1492 1493 1493 1490 1489 1489 1487 1485 1483 1481 1479 1476 1474 1472 1470 1468 1467 1465 1464 1463 1463 1463 1462 1461 1461 1460 1460 1459 1459 1458 1458 1457 1456 1456
1506 1502 1489 1488 1492 1494 1491 1485 1490 1490 1490 1491 1490 1489 1488 1486 1484 1483 1480 1478 1476 1474 1471 1469 1467 1465 1464 1462 1461 1461 1460 1459 1458 1458 1457 1456 1456 1455 1454 1454 1453 1452 1452 1451
1500 1500 1491 1489 1491 1490 1487 1488 1488 1488 1488 1488 1487 1486 1485 1483 1482 1480 1477 1475 1473 1471 1468 1466 1465 1463 1461 1459 1458 1457 1456 1455 1454 1454 1453 1452 1451 1451 1450 1449 1449 1448 1447 1447
1488 1485 1485 1485 1486 1486 1486 1487 1486 1486 1486 1485 1484 1483 1482 1480 1478 1476 1474 1472 1470 1468 1465 1463 1462 1460 1458 1456 1455 1454 1452 1451 1450 1450 1449 1448 1447 1447 1446 1445 1445 1444 1443 1442
1487 1483 1483 1483 1483 1484 1484 1484 1484 1484 1483 1482 1481 1480 1478 1477 1475 1473 1471 1469 1467 1464 1462 1460 1458 1457 1455 1453 1451 1450 1449 1448 1446 1445 1444 1444 1443 1442 1442 1441 1440 1440 1439 1438
1483 1482 1482 1481 1481 1481 1481 1481 1480 1480 1479 1478 1477 1476 1475 1473 1471 1470 1468 1466 1463 1461 1459 1457 1455 1453 1451 1450 1448 1446 1445 1444 1443 1442 1441 1440 1439 1438 1437 1437 1437 1436 1435 1435
1475 1476 1478 1477 1477 1478 1477 1477 1476 1476 1475 1474 1473 1472 1470 1469 1467 1466 1464 1462 1460 1457 1455 1453 1451 1449 1448 1446 1444 1443 1441 1440 1439 1438 1437 1436 1435 1434 1433 1433 1432 1431 1431 1430
1472 1472 1473 1473 1473 1474 1473 1473 1472 1472 1471 1470 1469 1468 1466 1465 1463 1461 1459 1458 1455 1453 1451 1449 1447 1445 1444 1442 1441 1439 1438 1437 1435 1434 1433 1432 1431 1430 1428 1428 1427 1426 1426 1425
1468 1469 1469 1469 1469 1469 1469 1469 1468 1467 1467 1466 1465 1463 1462 1460 1459 1457 1455 1453 1451 1449 1447 1445 1443 1441 1440 1438 1436 1435 1434 1432 1431 1430 1429 1428 1427 1426 1425 1423 1422 1421 1421 1420
1464 1465 1465 1465 1465 1465 1464 1464 1463 1462 1462 1461 1460 1459 1457 1456 1454 1452 1450 1448 1446 1444 1442 1440 1438 1437 1435 1433 1432 1430 1429 1428 1427 1426 1425 1424 1423 1422 1421 1419 1418 1417 1416 1416
1460 1460 1461 1461 1460 1460 1460 1459 1459 1458 1457 1456 1455 1454 1453 1451 1449 1447 1446 1444 1442 1439 1438 1436 1434 1432 1431 1429 1427 1426 1424 1424 1423 1422 1420 1419 1418 1417 1416 1415 1414 1413 1412 1411
1456 1456 1456 1456 1456 1456 1456 1455 1455 1454 1453 1451 1450 1449 1448 1446 1444 1443 1441 1439 1437 1435 1433 1431 1429 1428 1426 1424 1423 1421 1420 1419 1418 1417 1416 1415 1414 1413 1412 1411 1410 1409 1408 1407
1452 1452 1452 1452 1452 1452 1451 1451 1451 1449 1448 1447 1445 1444 1442 1441 1439 1438 1436 1434 1432 1430 1428 1426 1425 1423 1421 1420 1418 1416 1415 1414 1413 1412 1411 1410 1409 1408 1408 1407 1406 1405 1404 1403
1448 1448 1449 1449 1448 1448 1448 1447 1446 1445 1444 1443 1441 1439 1438 1436 1435 1433 1431 1429 1427 1425 1423 1422 1420 1418 1416 1414 1413 1411 1410 1409 1408 1407 1406 1405 1405 1404 1403 1402 1401 1401 1400 1399
1445 1445 1445 1445 1445 1445 1444 1443 1442 1441 1440 1438 1437 1435 1433 1432 1430 1428 1427 1425 1423 1421 1419 1417 1415 1413 1411 1410 1408 1407 1405 1404 1403 1402 1401 1400 1400 1399 1398 1398 1397 1396 1396 1395
1443 1443 1442 1442 1442 1441 1440 1440 1438 1437 1436 1434 1433 1431 1429 1427 1426 1424 1422 1420 1419 1417 1415 1412 1410 1408 1407 1405 1404 1402 1401 1400 1399 1397 1396 1396 1395 1394 1394 1393 1393 1392 1392 1391
1440 1440 1440 1439 1439 1438 1437 1436 1435 1433 1432 1430 1429 1427 1425 1423 1422 1420 1419 1417 1415 1413 1410 1408 1406 1404 1402 1401 1399 1398 1396 1395 1394 1393 1392 1391 1390 1390 1390 1389 1389 1388 1388 1387
1438 1438 1437 1437 1436 1435 1434 1433 1431 1430 1428 1427 1425 1424 1422 1420 1418 1417 1414 1413 1411 1409 1406 1404 1402 1400 1398 1396 1395 1393 1392 1391 1390 1389 1388 1387 1386 1386 1385 1385 1385 1384 1384 1383
1436 1436 1435 1434 1433 1432 1430 1429 1428 1427 1425 1424 1422 1421 1419 1417 1415 1413 1411 1409 1407 1405 1402 1400 1398 1396 1394 1392 1391 1389 1388 1387 1385 1384 1384 1383 1382 1382 1381 1381 1381 1380 1380 1380
1435 1434 1433 1432 1430 1429 1428 1426 1425 1424 1422 1421 1419 1418 1416 1414 1412 1410 1408 1406 1403 1401 1398 1396 1394 1392 1390 1388 1387 1385 1384 1383 1381 1380 1379 1379 1378 1378 1377 1377 1377 1377 1376 1376
1432 1431 1430 1429 1428 1427 1425 1424 1422 1421 1420 1418 1416 1415 1413 1411 1409 1407 1405 1402 1400 1398 1395 1393 1391 1389 1387 1385 1383 1382 1380 1379 1378 1377 1376 1375 1375 1374 1374 1374 1373 1373 1373 1373
1430 1429 1428 1427 1426 1425 1423 1422 1420 1419 1417 1415 1413 1412 1410 1408 1406 1404 1402 1399 1397 1394 1392 1390 1388 1386 1384 1382 1380 1378 1377 1376 1375 1374 1373 1372 1372 1371 1371 1371 1370 1370 1370 1369